[[{"header":{"parameterUnit":"m.s-1","parameterCategory":2,"la1":30.2991,"la2":30.254,"lo1":-89.0895,"lo2":-89.0444,"dy":0.0017,"dx":0.0017,"nx":28,"ny":28,"refTime":"2024-05-07T03:00:00:Z","depth":"0","parameterNumber":2,"parameterNumberName":"U-component_of_CURRENTS"},"data":[0,0,0,0,0,0,0,0,0,0,0,0,0,0,0,0,0,0,0,0,0,0,0,0,0,0,0,0,0,0,0,0,0,0,0,0,0,0,0,0,0,0,0,0,0,0,0,0,0,0,0,0,0,0,0,0,0,0,0.2798,0.2799,0,0.2859,0.2859,0.286,0.2859,0.2858,0.2858,0.2857,0.2894,0.2896,0.2897,0,0,0,0,0,0,0,0,0,0,0,0,0,0.2699,0.2701,0.2798,0.2799,0.28,0.2859,0.2859,0.286,0.2859,0.2858,0.2858,0.2857,0.2894,0.2896,0.2897,0,0,0,0,0,0,0,0,0,0,0,0,0,0.2747,0.2701,0.2798,0.2808,0.281,0.2859,0.2859,0.286,0.2859,0.2858,0.2857,0.2857,0.2893,0.2895,0.2898,0.293,0,0,0.2905,0.2906,0,0,0,0,0,0,0,0,0.2744,0.275,0.2806,0.2808,0.281,0.2852,0.2838,0.2883,0.2859,0.2838,0.2857,0.2856,0.288,0.2884,0.2894,0.2932,0.2933,0.2905,0.2906,0.2907,0.2908,0,0,0,0,0,0,0,0.2741,0.2748,0.282,0.2807,0.2809,0.2816,0.2822,0.2847,0.2861,0.284,0.284,0.2851,0.2881,0.2892,0.2895,0.2934,0.2905,0.2907,0.2908,0.2909,0.3028,0.303,0,0,0,0,0,0,0.2739,0.2745,0.2818,0.2822,0.2777,0.2819,0.2825,0.2838,0.2861,0.2865,0.2852,0.2851,0.2888,0.2892,0.2896,0.296,0.2907,0.291,0.2911,0.3027,0.3029,0.3031,0,0,0,0,0,0,0.2736,0.2745,0.2815,0.2786,0.2796,0.2822,0.2836,0.2839,0.2854,0.2871,0.2874,0.2864,0.2888,0.2893,0.2932,0.296,0.2911,0.2913,0.3025,0.3027,0.303,0.3071,0,0,0,0,0,0,0.2733,0.2744,0.2754,0.2786,0.2798,0.2854,0.2837,0.2841,0.2863,0.2862,0.2883,0.2885,0.2887,0.2929,0.2934,0.2962,0.2915,0.3022,0.3026,0.3029,0.3068,0.3075,0.3081,0,0,0,0,0,0.273,0.2747,0.2754,0.2763,0.281,0.2855,0.2862,0.2875,0.2865,0.2882,0.2896,0.2884,0.2953,0.2932,0.2938,0.2968,0.3021,0.3025,0.3029,0.3065,0.3074,0.3081,0,0,0,0,0,0,0.2706,0.275,0.2758,0.2786,0.2823,0.2856,0.2875,0.2882,0.2906,0.2904,0.2909,0.2914,0.296,0.2962,0.2938,0.3013,0.2985,0.299,0.301,0.3019,0.3026,0.3028,0.2917,0,0,0,0,0,0.2708,0.2734,0.2776,0.28,0.282,0.2849,0.2868,0.288,0.2906,0.2915,0.2929,0.2949,0.2983,0.2997,0.3024,0.3065,0.3075,0.3088,0.3095,0.3101,0.3109,0.3151,0.3162,0.3044,0.3044,0.3044,0,0,0.2704,0.2734,0.2746,0.2798,0.2826,0.2864,0.2858,0.2895,0.2924,0.2917,0.2957,0.2977,0.3001,0.3049,0.3069,0.3051,0.3142,0.3106,0.3111,0.3115,0.3157,0.3168,0.3178,0.3046,0.3046,0.3046,0,0,0.2714,0.274,0.2766,0.2803,0.2853,0.2878,0.2891,0.2931,0.2947,0.2993,0.2999,0.3035,0.3077,0.3104,0.3121,0.3184,0.318,0.3192,0.3225,0.3267,0.3276,0.3285,0.3318,0.3329,0.3191,0.3191,0.3191,0,0.2705,0.2747,0.2781,0.2821,0.2853,0.2886,0.2923,0.2954,0.2999,0.3019,0.301,0.3089,0.3106,0.317,0.3194,0.32,0.3219,0.3188,0.3275,0.3283,0.3292,0.3323,0.3335,0.3194,0.3193,0.3193,0.3193,0,0.2737,0.2774,0.2797,0.2858,0.2898,0.2938,0.2988,0.3021,0.3041,0.3069,0.3132,0.3162,0.3205,0.3221,0.3229,0.3301,0.3295,0.328,0.3249,0.3306,0.3336,0.3347,0.3197,0.3196,0.3196,0.3195,0,0,0.2704,0.2799,0.2806,0.2836,0.2921,0.295,0.3014,0.3077,0.3114,0.3155,0.3208,0.3267,0.3277,0.3299,0.3314,0.3352,0.3429,0.3344,0.3345,0.3369,0.3522,0.3524,0.3537,0.3428,0.3431,0.3432,0.352,0,0.2717,0.2787,0.2837,0.2899,0.294,0.2997,0.3052,0.3111,0.3164,0.3225,0.3264,0.3322,0.3309,0.3338,0.3375,0.3425,0.3461,0.3406,0.347,0.3472,0.3461,0.3551,0.3488,0.3563,0.3531,0.3533,0.3535,0,0.2726,0.2777,0.2839,0.292,0.2942,0.2981,0.3071,0.313,0.3228,0.3271,0.3336,0.3371,0.345,0.3422,0.3521,0.3487,0.3511,0.3535,0.3538,0.3534,0.3497,0.3502,0.3584,0.3542,0.3552,0.3551,0.355,0,0.2679,0.277,0.2815,0.2846,0.2947,0.2977,0.3034,0.3135,0.3193,0.331,0.3364,0.3446,0.3505,0.3547,0.3605,0.3569,0.3709,0.366,0.3679,0.3679,0.3635,0.3628,0.3677,0.3723,0.3723,0.3723,0.3723,0,0.2673,0.2702,0.279,0.2815,0.2859,0.2947,0.3011,0.3086,0.3206,0.3282,0.338,0.3465,0.3542,0.3627,0.3646,0.372,0.3742,0.3713,0.3715,0.3649,0.3642,0.3608,0.3573,0.3726,0.3725,0.3725,0.3724,0,0.2611,0.2675,0.2718,0.2813,0.2837,0.2868,0.2983,0.304,0.3168,0.3277,0.3319,0.3501,0.3628,0.3695,0.3796,0.3786,0.376,0.3854,0.3773,0.3765,0.3714,0.3682,0.3547,0.3432,0.3882,0.3883,0.3884,0,0.2588,0.2607,0.2687,0.2708,0.2746,0.281,0.2859,0.2998,0.3069,0.3295,0.3344,0.353,0.3641,0.3816,0.3868,0.3923,0.3796,0.3875,0.3791,0.3735,0.3701,0.3498,0.3395,0.375,0.3749,0.3749,0.3748,0,0.2538,0.256,0.2597,0.2639,0.268,0.2727,0.2811,0.2858,0.3034,0.315,0.3324,0.3444,0.3669,0.3757,0.3872,0.3887,0.372,0.3868,0.3833,0.3637,0.3394,0.3278,0.3662,0.3745,0.3745,0.3746,0.3746,0.3746,0.2482,0.2487,0.2532,0.2557,0.2597,0.2625,0.2632,0.2746,0.2849,0.2999,0.3201,0.3356,0.3614,0.3794,0.3787,0.3806,0.3694,0.3735,0.3713,0.352,0.3369,0.3752,0.382,0.382,0.3821,0.3822,0.3822,0,0.2407,0.2426,0.2452,0.247,0.2461,0.252,0.258,0.2582,0.2653,0.2874,0.301,0.3292,0.3444,0.3612,0.3781,0.37,0.3457,0.3611,0.3327,0.324,0.3637,0.3595,0.3589,0.3589,0.3589,0.3589,0.3589,0.3589,0.2373,0.2363,0.2374,0.2324,0.233,0.2291,0.2295,0.2331,0.2455,0.2633,0.2814,0.2999,0.3406,0.3697,0.3731,0.3634,0.3346,0.3209,0.3132,0.3478,0.3487,0.3495,0.3449,0.3412,0.3412,0.2603,0.2597,0.2593]},{"header":{"parameterUnit":"m.s-1","parameterCategory":2,"la1":30.2991,"la2":30.254,"lo1":-89.0895,"lo2":-89.0444,"dy":0.0017,"dx":0.0017,"nx":28,"ny":28,"refTime":"2024-05-07T03:00:00:Z","depth":"0","parameterNumber":3,"parameterNumberName":"V-component_of_CURRENTS"},"data":[0,0,0,0,0,0,0,0,0,0,0,0,0,0,0,0,0,0,0,0,0,0,0,0,0,0,0,0,0,0,0,0,0,0,0,0,0,0,0,0,0,0,0,0,0,0,0,0,0,0,0,0,0,0,0,0,0,0,0.0072,0.0072,0,-0.0006,-0.0007,-0.0008,-0.0065,-0.0066,-0.0066,-0.0066,-0.0194,-0.0197,-0.02,0,0,0,0,0,0,0,0,0,0,0,0,0,0.0129,0.0128,0.0072,0.0071,0.0071,-0.0006,-0.0007,-0.0008,-0.0065,-0.0066,-0.0066,-0.0067,-0.0193,-0.0197,-0.02,0,0,0,0,0,0,0,0,0,0,0,0,0,0.0082,0.0128,0.0072,0.0034,0.003,-0.0006,-0.0007,-0.0009,-0.0065,-0.0066,-0.0066,-0.0067,-0.0192,-0.0196,-0.0201,-0.0218,0,0,-0.0215,-0.0217,0,0,0,0,0,0,0,0,0.0085,0.008,0.004,0.0037,0.0032,-0.0025,-0.0034,-0.0081,-0.0065,-0.0031,-0.0067,-0.0067,-0.0141,-0.015,-0.0165,-0.0224,-0.023,-0.0215,-0.0218,-0.022,-0.0221,0,0,0,0,0,0,0,0.0088,0.0082,0.004,0.004,0.0034,0.0006,-0.0001,-0.0043,-0.0084,-0.0034,-0.0038,-0.0044,-0.0144,-0.016,-0.0168,-0.0232,-0.0215,-0.0219,-0.0222,-0.0224,-0.0302,-0.0302,0,0,0,0,0,0,0.0103,0.0086,0.0042,0.0038,0.0059,0.0005,-0.0003,-0.0008,-0.0082,-0.0094,-0.0043,-0.0046,-0.0152,-0.0163,-0.0173,-0.0181,-0.022,-0.0224,-0.0227,-0.0303,-0.0302,-0.0302,0,0,0,0,0,0,0.0105,0.01,0.0046,0.0061,0.0052,0.0006,0.0,-0.0009,-0.0023,-0.0089,-0.0102,-0.0049,-0.0153,-0.0166,-0.0201,-0.0188,-0.0227,-0.0231,-0.0304,-0.0303,-0.0302,-0.0209,0,0,0,0,0,0,0.0107,0.0101,0.0105,0.0062,0.0052,0.0035,0.0,-0.001,-0.0026,-0.0031,-0.0098,-0.011,-0.0154,-0.0194,-0.0206,-0.0195,-0.0234,-0.0305,-0.0303,-0.0302,-0.0213,-0.0205,-0.0198,0,0,0,0,0,0.0109,0.0121,0.0106,0.0101,0.0058,0.0036,0.0028,-0.0008,-0.0025,-0.0025,-0.0069,-0.0108,-0.0194,-0.0197,-0.0211,-0.0201,-0.0305,-0.0304,-0.0302,-0.0217,-0.0207,-0.0199,0,0,0,0,0,0,0.0148,0.0115,0.0098,0.0099,0.0074,0.0027,0.0026,-0.0001,-0.0035,-0.0039,-0.0103,-0.0118,-0.0145,-0.0184,-0.0185,-0.0219,-0.0255,-0.0256,-0.0185,-0.0176,-0.0169,-0.0143,-0.0238,0,0,0,0,0,0.016,0.0159,0.0122,0.0123,0.0115,0.0072,0.0059,0.0035,-0.0002,-0.0018,-0.0064,-0.011,-0.0149,-0.0171,-0.0212,-0.0231,-0.0269,-0.0233,-0.0225,-0.0219,-0.0207,-0.0253,-0.0248,-0.0297,-0.0297,-0.0297,0,0,0.0174,0.0158,0.0156,0.0132,0.0109,0.011,0.0063,0.0052,0.0051,-0.0026,-0.0039,-0.0089,-0.0149,-0.017,-0.0184,-0.0201,-0.0224,-0.0217,-0.0211,-0.0202,-0.0251,-0.0246,-0.0242,-0.0296,-0.0296,-0.0296,0,0,0.0212,0.0191,0.0206,0.0192,0.0168,0.0143,0.0144,0.0104,0.0085,0.0064,0.0011,-0.0026,-0.0086,-0.0123,-0.015,-0.0128,-0.0185,-0.014,-0.0081,-0.0126,-0.0122,-0.012,-0.0155,-0.0156,-0.0134,-0.0134,-0.0134,0,0.0232,0.0245,0.0208,0.0221,0.022,0.0164,0.0185,0.0158,0.0112,0.0103,0.0073,-0.0006,-0.0062,-0.0086,-0.0078,-0.0111,-0.0141,-0.0109,-0.0116,-0.0114,-0.0113,-0.0149,-0.0152,-0.0129,-0.013,-0.013,-0.0131,0,0.0279,0.0291,0.0301,0.03,0.0294,0.0301,0.0265,0.0253,0.0221,0.0191,0.0159,0.0084,0.0039,0.0015,-0.0027,-0.004,-0.0066,-0.0102,-0.0135,-0.0102,-0.0143,-0.0147,-0.0123,-0.0124,-0.0126,-0.0127,0,0,0.0322,0.0334,0.0337,0.0358,0.0339,0.0342,0.0344,0.033,0.0341,0.028,0.0284,0.0206,0.0163,0.0129,0.0069,0.003,0.0006,-0.0021,-0.0026,-0.0049,-0.0082,-0.0089,-0.0096,-0.003,-0.0031,-0.0031,-0.0112,0,0.0372,0.0422,0.041,0.0458,0.0483,0.0445,0.0453,0.0432,0.0405,0.0392,0.0309,0.0285,0.0207,0.0191,0.0138,0.0043,-0.0001,0.0032,-0.0116,-0.012,-0.0126,-0.0099,-0.0074,-0.0143,-0.0116,-0.0117,-0.0117,0,0.0423,0.0453,0.0511,0.0546,0.0553,0.0568,0.0581,0.0584,0.0546,0.0528,0.0485,0.0415,0.035,0.0277,0.0133,0.016,0.0051,-0.0031,-0.0037,-0.0077,-0.0135,-0.0174,-0.0152,-0.0353,-0.0125,-0.0124,-0.0124,0,0.0478,0.0525,0.0578,0.0588,0.0611,0.0629,0.0638,0.0623,0.0649,0.0618,0.0629,0.0528,0.0494,0.0344,0.0172,0.0151,0.0014,-0.0044,-0.0155,-0.0157,-0.0181,-0.0184,-0.0364,-0.0149,-0.0149,-0.0149,-0.0149,0,0.0537,0.0582,0.0607,0.0637,0.0701,0.0693,0.0758,0.0751,0.0764,0.0821,0.0706,0.0727,0.051,0.04,0.0218,0.0036,0.0044,-0.0133,-0.0175,-0.0147,-0.0146,-0.036,-0.0473,-0.0152,-0.0151,-0.0151,-0.015,0,0.0589,0.0605,0.0673,0.0713,0.073,0.0776,0.0847,0.0897,0.0895,0.0967,0.0965,0.0882,0.0746,0.0517,0.0289,0.0119,-0.0185,-0.0147,-0.0091,-0.0124,-0.042,-0.0527,-0.074,-0.0831,-0.0284,-0.0285,-0.0285,0,0.062,0.0659,0.0731,0.0777,0.0799,0.087,0.0925,0.0959,0.1032,0.1078,0.1123,0.1017,0.0973,0.0631,0.0307,-0.0008,-0.0205,-0.019,-0.0235,-0.0422,-0.0574,-0.0651,-0.0719,-0.0235,-0.0235,-0.0235,-0.0235,0,0.0683,0.0704,0.076,0.0855,0.0924,0.1018,0.1106,0.1184,0.1247,0.1312,0.1384,0.1351,0.1038,0.0742,0.0311,0.0088,-0.0323,-0.02,-0.0416,-0.056,-0.0635,-0.0746,-0.0196,-0.0235,-0.0235,-0.0235,-0.0235,-0.0235,0.0726,0.0777,0.0848,0.094,0.1029,0.1151,0.1245,0.1358,0.1491,0.1615,0.1584,0.1595,0.1165,0.0581,0.0237,-0.0342,-0.0363,-0.0518,-0.0635,-0.0697,-0.0782,-0.0221,-0.0294,-0.0294,-0.0294,-0.0294,-0.0295,0,0.0776,0.0838,0.093,0.1045,0.1151,0.1189,0.1357,0.1465,0.1638,0.1779,0.1846,0.1676,0.1114,0.0554,-0.0231,-0.0679,-0.0847,-0.0928,-0.1049,-0.11,-0.062,-0.0613,-0.073,-0.073,-0.073,-0.073,-0.0729,-0.0729,0.0808,0.09,0.0949,0.1124,0.121,0.1367,0.147,0.1638,0.1782,0.1967,0.203,0.2034,0.1653,0.0161,-0.086,-0.1113,-0.1417,-0.1493,-0.1666,-0.1359,-0.133,-0.1303,-0.1324,-0.1588,-0.1589,-0.2077,-0.2082,-0.2086]}],[{"header":{"parameterUnit":"m.s-1","parameterCategory":2,"la1":30.2991,"la2":30.254,"lo1":-89.0895,"lo2":-89.0444,"dy":0.0017,"dx":0.0017,"nx":28,"ny":28,"refTime":"2024-05-07T03:00:00:Z","depth":"2","parameterNumber":2,"parameterNumberName":"U-component_of_CURRENTS"},"data":[0,0,0,0,0,0,0,0,0,0,0,0,0,0,0,0,0,0,0,0,0,0,0,0,0,0,0,0,0,0,0,0,0,0,0,0,0,0,0,0,0,0,0,0,0,0,0,0,0,0,0,0,0,0,0,0,0,0,0.2653,0.2653,0,0.2702,0.2702,0.2703,0.2708,0.2708,0.2708,0.2707,0.2754,0.2755,0.2756,0,0,0,0,0,0,0,0,0,0,0,0,0,0.2572,0.2573,0.2653,0.2654,0.2654,0.2702,0.2702,0.2703,0.2708,0.2708,0.2708,0.2707,0.2753,0.2755,0.2757,0,0,0,0,0,0,0,0,0,0,0,0,0,0.261,0.2573,0.2653,0.2665,0.2667,0.2702,0.2702,0.2703,0.2708,0.2708,0.2708,0.2707,0.2753,0.2755,0.2757,0.2778,0,0,0.2763,0.2764,0,0,0,0,0,0,0,0,0.2608,0.2612,0.2662,0.2664,0.2666,0.2701,0.2691,0.2729,0.2708,0.269,0.2707,0.2707,0.2738,0.2741,0.2747,0.278,0.2782,0.2764,0.2765,0.2766,0.2767,0,0,0,0,0,0,0,0.2605,0.261,0.2669,0.2663,0.2666,0.2671,0.2675,0.2698,0.2713,0.2691,0.2692,0.2702,0.2738,0.2745,0.2749,0.2783,0.2764,0.2766,0.2767,0.2768,0.2879,0.2881,0,0,0,0,0,0,0.2604,0.2608,0.2668,0.2671,0.2638,0.2673,0.2678,0.2688,0.2713,0.2717,0.2703,0.2702,0.2742,0.2746,0.275,0.282,0.2766,0.2768,0.2769,0.2878,0.288,0.2881,0,0,0,0,0,0,0.2603,0.2609,0.2666,0.2643,0.2651,0.2675,0.2686,0.2689,0.2707,0.2722,0.2725,0.2719,0.2742,0.2747,0.2785,0.282,0.2769,0.2771,0.2876,0.2878,0.288,0.2931,0,0,0,0,0,0,0.26,0.2608,0.2619,0.2643,0.2652,0.2698,0.2687,0.269,0.2714,0.2715,0.2737,0.274,0.2742,0.2782,0.2787,0.2822,0.2773,0.2874,0.2877,0.288,0.2927,0.2935,0.2941,0,0,0,0,0,0.2597,0.2611,0.2619,0.2626,0.2664,0.27,0.2705,0.2719,0.2716,0.2731,0.2747,0.274,0.2805,0.2785,0.2791,0.2827,0.2872,0.2876,0.2879,0.2924,0.2933,0.2941,0,0,0,0,0,0,0.2579,0.2614,0.2623,0.2646,0.2677,0.2702,0.272,0.2728,0.2752,0.2754,0.276,0.2765,0.2815,0.2814,0.2791,0.2869,0.2839,0.2844,0.287,0.2879,0.2886,0.2884,0.2774,0,0,0,0,0,0.2582,0.2604,0.2637,0.2659,0.2676,0.27,0.2717,0.2729,0.2753,0.2763,0.2778,0.28,0.2834,0.2849,0.2875,0.2914,0.292,0.2942,0.2949,0.2955,0.2958,0.2998,0.3009,0.2894,0.2894,0.2893,0,0,0.2579,0.2605,0.2615,0.2658,0.2681,0.2712,0.2709,0.2743,0.277,0.2766,0.2806,0.2828,0.2851,0.2899,0.2921,0.2902,0.2994,0.296,0.2965,0.2965,0.3003,0.3014,0.3024,0.2896,0.2896,0.2895,0,0,0.2589,0.2612,0.2634,0.2665,0.271,0.2729,0.2742,0.2777,0.2795,0.284,0.2848,0.2887,0.293,0.2954,0.2971,0.3033,0.3033,0.3047,0.3079,0.3118,0.3128,0.3136,0.3165,0.3175,0.3047,0.3047,0.3047,0,0.2584,0.2618,0.2646,0.2681,0.2707,0.2738,0.2768,0.2797,0.284,0.2862,0.2859,0.2938,0.2956,0.3018,0.3043,0.3049,0.3069,0.3043,0.3127,0.3135,0.3143,0.317,0.3181,0.305,0.305,0.3049,0.3049,0,0.2609,0.2642,0.2662,0.2713,0.2745,0.278,0.2824,0.2859,0.2884,0.2912,0.2978,0.3007,0.3051,0.3071,0.3079,0.3151,0.3147,0.3133,0.3102,0.3158,0.3183,0.3194,0.3054,0.3053,0.3052,0.3052,0,0,0.258,0.2661,0.2668,0.2696,0.2765,0.2791,0.2849,0.2906,0.2947,0.2991,0.3044,0.3106,0.3122,0.3143,0.3162,0.3197,0.3274,0.3195,0.3196,0.3218,0.3364,0.3353,0.3363,0.328,0.3282,0.3284,0.3362,0,0.259,0.2648,0.269,0.2745,0.2777,0.2831,0.2879,0.2937,0.2992,0.3053,0.3096,0.3157,0.315,0.3185,0.3221,0.327,0.3304,0.3254,0.3311,0.3313,0.3292,0.3375,0.313,0.3178,0.3372,0.3373,0.3375,0,0.2595,0.2637,0.2688,0.2761,0.278,0.2819,0.2903,0.2956,0.3052,0.31,0.3167,0.3205,0.3282,0.3261,0.3355,0.3328,0.3352,0.3374,0.3378,0.3355,0.3321,0.3154,0.319,0.3392,0.3391,0.3389,0.3388,0,0.2549,0.263,0.2668,0.2696,0.2785,0.282,0.2871,0.2966,0.3024,0.314,0.3198,0.3276,0.3337,0.3378,0.3436,0.3406,0.3532,0.3489,0.3494,0.3493,0.3288,0.3266,0.3547,0.3546,0.3546,0.3546,0.3546,0,0.2538,0.2566,0.2651,0.2675,0.272,0.2795,0.2865,0.2934,0.3049,0.3123,0.3217,0.3293,0.3374,0.3452,0.3472,0.3534,0.3562,0.3522,0.3523,0.3301,0.328,0.346,0.3449,0.3549,0.3548,0.3548,0.3547,0,0.248,0.2538,0.2582,0.2673,0.27,0.2734,0.2851,0.2906,0.3029,0.3135,0.3179,0.3333,0.3446,0.3516,0.3607,0.3592,0.364,0.3646,0.3384,0.3354,0.3557,0.3548,0.3653,0.3654,0.3654,0.3655,0.3655,0,0.2456,0.2476,0.2561,0.2583,0.2626,0.2694,0.2741,0.2876,0.2944,0.3149,0.3189,0.3359,0.3444,0.3592,0.3618,0.3665,0.3687,0.3448,0.3345,0.3584,0.3574,0.3564,0.3555,0.3087,0.3083,0.308,0.3077,0,0.2408,0.2438,0.2477,0.2521,0.2568,0.262,0.2703,0.2752,0.2916,0.3011,0.3144,0.3239,0.3424,0.3392,0.3495,0.3473,0.3423,0.338,0.3702,0.3114,0.3061,0.3048,0.3055,0.3045,0.3048,0.305,0.3052,0.3053,0.2365,0.2371,0.2419,0.2448,0.2494,0.2523,0.2532,0.2631,0.2713,0.2824,0.2994,0.3062,0.3168,0.3211,0.3149,0.3116,0.3336,0.3176,0.3182,0.3193,0.3129,0.3081,0.3056,0.3059,0.3062,0.3064,0.3067,0,0.2299,0.2317,0.2342,0.2365,0.2361,0.2426,0.248,0.2467,0.2503,0.2661,0.2751,0.2621,0.2667,0.2757,0.2686,0.2725,0.2631,0.2595,0.2443,0.2482,0.2515,0.2409,0.2148,0.2144,0.2141,0.2138,0,0,0.2266,0.2256,0.226,0.222,0.2236,0.2201,0.2204,0.2205,0.228,0.2278,0.2316,0.256,0.2717,0.2393,0.2386,0.2255,0.2327,0.2165,0.2921,0.2785,0.2811,0.2895,0.2784,0,0,0,0,0]},{"header":{"parameterUnit":"m.s-1","parameterCategory":2,"la1":30.2991,"la2":30.254,"lo1":-89.0895,"lo2":-89.0444,"dy":0.0017,"dx":0.0017,"nx":28,"ny":28,"refTime":"2024-05-07T03:00:00:Z","depth":"2","parameterNumber":3,"parameterNumberName":"V-component_of_CURRENTS"},"data":[0,0,0,0,0,0,0,0,0,0,0,0,0,0,0,0,0,0,0,0,0,0,0,0,0,0,0,0,0,0,0,0,0,0,0,0,0,0,0,0,0,0,0,0,0,0,0,0,0,0,0,0,0,0,0,0,0,0,-0.0026,-0.0027,0,-0.0101,-0.0102,-0.0103,-0.0155,-0.0155,-0.0155,-0.0155,-0.0278,-0.0281,-0.0284,0,0,0,0,0,0,0,0,0,0,0,0,0,0.003,0.0029,-0.0026,-0.0027,-0.0028,-0.0101,-0.0102,-0.0103,-0.0155,-0.0155,-0.0155,-0.0156,-0.0277,-0.028,-0.0284,0,0,0,0,0,0,0,0,0,0,0,0,0,-0.0016,0.0029,-0.0026,-0.0061,-0.0065,-0.01,-0.0102,-0.0103,-0.0155,-0.0155,-0.0155,-0.0156,-0.0276,-0.028,-0.0284,-0.0304,0,0,-0.0298,-0.03,0,0,0,0,0,0,0,0,-0.0013,-0.0018,-0.0055,-0.0059,-0.0063,-0.0118,-0.0127,-0.0172,-0.0154,-0.0122,-0.0155,-0.0156,-0.0227,-0.0236,-0.025,-0.031,-0.0315,-0.0299,-0.0301,-0.0303,-0.0305,0,0,0,0,0,0,0,-0.001,-0.0015,-0.0057,-0.0056,-0.0061,-0.0088,-0.0094,-0.0136,-0.0174,-0.0125,-0.0129,-0.0134,-0.023,-0.0246,-0.0254,-0.0317,-0.0299,-0.0303,-0.0305,-0.0307,-0.0387,-0.0386,0,0,0,0,0,0,0.0005,-0.0012,-0.0055,-0.0059,-0.0037,-0.0088,-0.0096,-0.0101,-0.0172,-0.0183,-0.0134,-0.0137,-0.0238,-0.0248,-0.0258,-0.0268,-0.0303,-0.0308,-0.031,-0.0387,-0.0387,-0.0386,0,0,0,0,0,0,0.0006,0.0002,-0.0052,-0.0036,-0.0045,-0.0088,-0.0094,-0.0102,-0.0115,-0.0178,-0.019,-0.0138,-0.0239,-0.0252,-0.0286,-0.0274,-0.031,-0.0314,-0.0388,-0.0387,-0.0386,-0.0299,0,0,0,0,0,0,0.0008,0.0003,0.0006,-0.0035,-0.0045,-0.0063,-0.0094,-0.0103,-0.0118,-0.0122,-0.0186,-0.0198,-0.024,-0.0279,-0.029,-0.0281,-0.0317,-0.0389,-0.0388,-0.0387,-0.0303,-0.0295,-0.0289,0,0,0,0,0,0.0011,0.002,0.0007,0.0002,-0.0039,-0.0062,-0.007,-0.0103,-0.0117,-0.0118,-0.0159,-0.0196,-0.028,-0.0282,-0.0296,-0.0287,-0.0389,-0.0388,-0.0387,-0.0306,-0.0297,-0.0289,0,0,0,0,0,0,0.0046,0.0014,-0.0001,-0.0001,-0.0026,-0.007,-0.0072,-0.0096,-0.0128,-0.0131,-0.0192,-0.0206,-0.0232,-0.027,-0.0271,-0.0306,-0.034,-0.0341,-0.0273,-0.0265,-0.0258,-0.0234,-0.0321,0,0,0,0,0,0.0057,0.0056,0.002,0.002,0.0012,-0.0028,-0.0041,-0.0062,-0.0097,-0.0112,-0.0155,-0.02,-0.0238,-0.0259,-0.0299,-0.0319,-0.0356,-0.0322,-0.0315,-0.0309,-0.0298,-0.0344,-0.034,-0.0382,-0.0382,-0.0382,0,0,0.0071,0.0054,0.0053,0.0028,0.0007,0.0006,-0.0037,-0.0047,-0.0049,-0.012,-0.0133,-0.0179,-0.0238,-0.0259,-0.0274,-0.029,-0.0316,-0.0307,-0.0302,-0.0294,-0.0342,-0.0338,-0.0335,-0.0381,-0.0381,-0.0381,0,0,0.0104,0.0085,0.0098,0.0083,0.0061,0.0036,0.0038,-0.0,-0.0017,-0.0037,-0.0087,-0.0122,-0.0179,-0.0216,-0.0244,-0.0224,-0.0279,-0.0236,-0.0182,-0.0226,-0.0223,-0.0221,-0.0256,-0.0258,-0.0231,-0.0231,-0.023,0,0.0124,0.0132,0.0098,0.0108,0.0106,0.0056,0.0073,0.0048,0.0004,-0.0004,-0.0028,-0.0104,-0.0158,-0.0184,-0.0177,-0.0208,-0.0238,-0.0207,-0.0216,-0.0215,-0.0214,-0.0251,-0.0254,-0.0226,-0.0227,-0.0227,-0.0228,0,0.0163,0.0173,0.0181,0.0178,0.0171,0.0176,0.0142,0.0132,0.0105,0.0076,0.0047,-0.0023,-0.0067,-0.009,-0.0129,-0.0145,-0.0169,-0.0203,-0.0234,-0.0205,-0.0246,-0.025,-0.022,-0.0221,-0.0223,-0.0224,0,0,0.0204,0.0209,0.0213,0.0231,0.0211,0.0213,0.0213,0.0199,0.0208,0.0154,0.0156,0.0084,0.0046,0.0014,-0.0043,-0.0082,-0.0107,-0.0129,-0.0133,-0.0157,-0.0196,-0.0203,-0.021,-0.0141,-0.0142,-0.0142,-0.0224,0,0.0248,0.0289,0.0276,0.0318,0.0338,0.0304,0.031,0.029,0.0265,0.0252,0.0176,0.0154,0.0085,0.0072,0.002,-0.0072,-0.0115,-0.0081,-0.0226,-0.023,-0.0236,-0.0214,-0.0186,-0.0255,-0.0229,-0.023,-0.023,0,0.0292,0.0316,0.0366,0.0397,0.0403,0.0417,0.0428,0.0428,0.0391,0.0376,0.0336,0.0272,0.021,0.0146,0.0006,0.0034,-0.0068,-0.0147,-0.0153,-0.0192,-0.0247,-0.0283,-0.0265,-0.0239,-0.0238,-0.0238,-0.0237,0,0.0342,0.0382,0.0428,0.0436,0.0455,0.0474,0.0482,0.0465,0.0488,0.0457,0.047,0.0373,0.0339,0.02,0.0039,0.0022,-0.0116,-0.0168,-0.0274,-0.0276,-0.0296,-0.0298,-0.027,-0.027,-0.027,-0.027,-0.0269,0,0.0394,0.0434,0.0457,0.0484,0.0545,0.0534,0.0596,0.0587,0.0596,0.0644,0.054,0.0552,0.0353,0.0246,0.0078,-0.0096,-0.009,-0.0254,-0.0295,-0.0264,-0.0262,-0.0287,-0.0288,-0.0273,-0.0272,-0.0271,-0.0271,0,0.0442,0.0454,0.0517,0.0554,0.0572,0.0615,0.0682,0.0726,0.0724,0.0782,0.0781,0.0691,0.0557,0.0349,0.0129,-0.0027,-0.0209,-0.0278,-0.022,-0.0251,-0.0352,-0.0348,-0.0408,-0.0409,-0.041,-0.041,-0.0411,0,0.0468,0.0504,0.0572,0.0617,0.064,0.0708,0.076,0.0788,0.0849,0.0877,0.0911,0.0803,0.0749,0.0423,0.0127,-0.0159,-0.0203,-0.032,-0.0356,-0.0332,-0.0365,-0.0359,-0.0354,-0.0352,-0.0352,-0.0352,-0.0352,0,0.0524,0.0547,0.0599,0.069,0.0758,0.0846,0.0925,0.0994,0.1041,0.1084,0.1121,0.1077,0.0787,0.05,0.0114,-0.0079,-0.0273,-0.033,-0.0322,-0.0314,-0.0284,-0.0315,-0.0311,-0.0353,-0.0353,-0.0353,-0.0353,-0.0353,0.0566,0.0612,0.0679,0.0767,0.0856,0.0967,0.105,0.1142,0.124,0.1319,0.1279,0.1234,0.0911,0.0422,0.0074,-0.0282,-0.0273,-0.04,-0.0399,-0.0397,-0.0368,-0.034,-0.0414,-0.0414,-0.0414,-0.0415,-0.0415,0,0.0611,0.0666,0.075,0.0859,0.0962,0.1007,0.115,0.1226,0.1348,0.1437,0.1467,0.1174,0.0852,0.0485,-0.0049,-0.0371,-0.0395,-0.0462,-0.0431,-0.0428,-0.0426,-0.0397,-0.0452,-0.0453,-0.0454,-0.0455,0,0,0.0637,0.0718,0.0758,0.0922,0.1013,0.1157,0.1248,0.1358,0.1448,0.1505,0.1506,0.1458,0.0999,0.0607,0.0159,-0.0148,-0.0206,-0.0199,-0.0132,-0.0039,-0.0033,-0.0353,-0.0301,0,0,0,0,0]}],[{"header":{"parameterUnit":"m.s-1","parameterCategory":2,"la1":30.2991,"la2":30.254,"lo1":-89.0895,"lo2":-89.0444,"dy":0.0017,"dx":0.0017,"nx":28,"ny":28,"refTime":"2024-05-07T03:00:00:Z","depth":"4","parameterNumber":2,"parameterNumberName":"U-component_of_CURRENTS"},"data":[0,0,0,0,0,0,0,0,0,0,0,0,0,0,0,0,0,0,0,0,0,0,0,0,0,0,0,0,0,0,0,0,0,0,0,0,0,0,0,0,0,0,0,0,0,0,0,0,0,0,0,0,0,0,0,0,0,0,0.1698,0.1699,0,0.1761,0.1761,0.1762,0.182,0.1821,0.1822,0.1823,0.1873,0.1874,0.1874,0,0,0,0,0,0,0,0,0,0,0,0,0,0.1615,0.1616,0.1698,0.1699,0.17,0.1761,0.1761,0.1762,0.182,0.1821,0.1822,0.1823,0.1873,0.1873,0.1874,0,0,0,0,0,0,0,0,0,0,0,0,0,0.166,0.1617,0.1698,0.1738,0.1742,0.176,0.1761,0.1762,0.182,0.1821,0.1822,0.1824,0.1873,0.1873,0.1874,0.1853,0,0,0.1877,0.1877,0,0,0,0,0,0,0,0,0.1658,0.1663,0.1731,0.1735,0.174,0.1785,0.1751,0.1792,0.1819,0.1788,0.1823,0.1824,0.1843,0.1846,0.1853,0.1855,0.1857,0.1877,0.1877,0.1877,0.1878,0,0,0,0,0,0,0,0.1654,0.1661,0.1721,0.1732,0.1737,0.1747,0.1755,0.1759,0.1806,0.1791,0.1796,0.1805,0.1845,0.1852,0.1854,0.1858,0.1877,0.1877,0.1878,0.1878,0.1977,0.1979,0,0,0,0,0,0,0.165,0.1658,0.1719,0.1723,0.1703,0.1748,0.1757,0.1768,0.1806,0.1814,0.1804,0.1808,0.185,0.1853,0.1856,0.1939,0.1877,0.1878,0.1879,0.1975,0.1978,0.198,0,0,0,0,0,0,0.1648,0.1654,0.1717,0.1693,0.1702,0.1748,0.176,0.1769,0.1813,0.1816,0.1824,0.1844,0.1851,0.1855,0.1897,0.1937,0.1879,0.1879,0.1973,0.1976,0.1979,0.2036,0,0,0,0,0,0,0.1645,0.1653,0.1676,0.1693,0.1703,0.1751,0.176,0.1769,0.1815,0.1821,0.1852,0.1857,0.1852,0.1896,0.1898,0.1937,0.188,0.197,0.1974,0.1978,0.2031,0.204,0.2048,0,0,0,0,0,0.1642,0.1659,0.1677,0.1685,0.1728,0.1752,0.1759,0.1794,0.1816,0.1839,0.1867,0.1858,0.1924,0.1898,0.19,0.194,0.1968,0.1973,0.1978,0.2027,0.2038,0.2048,0,0,0,0,0,0,0.1637,0.1667,0.1687,0.1715,0.1744,0.1763,0.1792,0.1813,0.1853,0.1873,0.1875,0.1881,0.1937,0.1931,0.1903,0.1984,0.1948,0.1954,0.1985,0.1996,0.2005,0.2013,0.1881,0,0,0,0,0,0.1645,0.167,0.1697,0.1725,0.1742,0.1775,0.1797,0.1822,0.1851,0.1872,0.1896,0.1925,0.1951,0.1968,0.1988,0.2022,0.2028,0.2054,0.2063,0.207,0.2081,0.2123,0.2136,0.1996,0.1996,0.1996,0,0,0.1652,0.1673,0.1689,0.1727,0.1755,0.1782,0.1792,0.1837,0.1872,0.1868,0.1934,0.1957,0.1968,0.2015,0.204,0.2019,0.2116,0.2076,0.2082,0.2089,0.2129,0.2143,0.2155,0.1999,0.1999,0.1998,0,0,0.1661,0.1699,0.1718,0.1745,0.1794,0.1814,0.1834,0.1878,0.1916,0.1967,0.1984,0.2032,0.2067,0.2088,0.2099,0.2166,0.2163,0.2183,0.223,0.227,0.2282,0.2292,0.2324,0.2336,0.2184,0.2184,0.2184,0,0.1672,0.1698,0.1729,0.1753,0.1783,0.1831,0.186,0.1898,0.1955,0.199,0.2001,0.2087,0.21,0.2154,0.2188,0.2185,0.2208,0.2184,0.2281,0.2291,0.23,0.233,0.2343,0.2188,0.2187,0.2187,0.2187,0,0.1682,0.1719,0.1736,0.1784,0.1819,0.1857,0.1907,0.1963,0.2016,0.2052,0.2137,0.2163,0.2215,0.2232,0.2232,0.2313,0.2308,0.2286,0.2249,0.2317,0.2345,0.2358,0.2192,0.2191,0.219,0.2189,0,0,0.1665,0.173,0.1741,0.177,0.1843,0.1868,0.1941,0.201,0.2066,0.2136,0.2206,0.2267,0.2302,0.2319,0.2334,0.2374,0.2463,0.2371,0.2371,0.2394,0.2562,0.2418,0.2418,0.2464,0.2466,0.2468,0.2555,0,0.167,0.1712,0.175,0.1808,0.1836,0.1908,0.1964,0.2039,0.2113,0.2195,0.2253,0.2325,0.2328,0.237,0.2415,0.2458,0.2499,0.2442,0.25,0.2502,0.2358,0.2428,0.2476,0.2565,0.2567,0.2569,0.2571,0,0.166,0.1696,0.1744,0.1822,0.1843,0.1892,0.2003,0.2061,0.218,0.2241,0.2331,0.2383,0.2478,0.246,0.257,0.2539,0.2566,0.2584,0.2587,0.244,0.2381,0.2482,0.2593,0.2591,0.259,0.2588,0.2587,0,0.1615,0.169,0.1732,0.1759,0.1852,0.1906,0.1971,0.2085,0.2152,0.2289,0.2359,0.2459,0.2536,0.2588,0.2653,0.2627,0.2756,0.2711,0.2602,0.2592,0.2668,0.2656,0.2781,0.2781,0.278,0.278,0.278,0,0.1585,0.1624,0.1722,0.1744,0.181,0.189,0.1977,0.2062,0.2192,0.2268,0.2388,0.2457,0.2578,0.2664,0.269,0.2693,0.2789,0.2626,0.2609,0.2691,0.2681,0.2677,0.2664,0.2783,0.2783,0.2782,0.2781,0,0.1516,0.1582,0.1633,0.1743,0.1788,0.1836,0.1977,0.2035,0.2176,0.2285,0.234,0.2501,0.2605,0.27,0.2795,0.273,0.2748,0.2721,0.2826,0.2811,0.2546,0.2535,0.2594,0.259,0.2586,0.2583,0.2581,0,0.1479,0.1498,0.1616,0.1656,0.1714,0.1805,0.1865,0.2013,0.2077,0.2281,0.2319,0.2488,0.2574,0.26,0.27,0.2742,0.2711,0.2696,0.2597,0.2551,0.253,0.2524,0.2519,0.2575,0.2574,0.2573,0.2572,0,0.1402,0.1455,0.1499,0.1582,0.1655,0.1716,0.1821,0.1854,0.2017,0.2171,0.2251,0.2319,0.2433,0.2504,0.2571,0.2586,0.2688,0.2657,0.2663,0.257,0.2529,0.2509,0.2508,0.256,0.2562,0.2563,0.2563,0,0.1346,0.1357,0.1426,0.1485,0.1572,0.1602,0.1666,0.1745,0.1827,0.2052,0.207,0.2247,0.24,0.2425,0.2478,0.2498,0.245,0.2353,0.2374,0.2389,0.2282,0.2198,0.2125,0,0,0,0,0,0.128,0.1279,0.1325,0.1378,0.1459,0.1512,0.1626,0.1693,0.1851,0.186,0.1963,0.2057,0.2147,0.2237,0.2218,0.2389,0.2459,0.2355,0.2356,0.249,0.2505,0.2399,0,0,0,0,0,0,0.1232,0.1266,0.1279,0.1275,0.1301,0.1372,0.1437,0.1546,0.1556,0.1731,0.1794,0.1937,0.2059,0.2148,0.2183,0.2212,0.217,0.2472,0.2467,0.2482,0.2495,0.2507,0.2403,0,0,0,0,0]},{"header":{"parameterUnit":"m.s-1","parameterCategory":2,"la1":30.2991,"la2":30.254,"lo1":-89.0895,"lo2":-89.0444,"dy":0.0017,"dx":0.0017,"nx":28,"ny":28,"refTime":"2024-05-07T03:00:00:Z","depth":"4","parameterNumber":3,"parameterNumberName":"V-component_of_CURRENTS"},"data":[0,0,0,0,0,0,0,0,0,0,0,0,0,0,0,0,0,0,0,0,0,0,0,0,0,0,0,0,0,0,0,0,0,0,0,0,0,0,0,0,0,0,0,0,0,0,0,0,0,0,0,0,0,0,0,0,0,0,-0.004,-0.0041,0,-0.0087,-0.0087,-0.0088,-0.0125,-0.0126,-0.0126,-0.0126,-0.0208,-0.021,-0.0212,0,0,0,0,0,0,0,0,0,0,0,0,0,-0.0008,-0.0009,-0.004,-0.0041,-0.0041,-0.0087,-0.0087,-0.0088,-0.0125,-0.0126,-0.0126,-0.0126,-0.0207,-0.021,-0.0212,0,0,0,0,0,0,0,0,0,0,0,0,0,-0.0036,-0.0009,-0.004,-0.0064,-0.0067,-0.0087,-0.0087,-0.0088,-0.0125,-0.0126,-0.0126,-0.0126,-0.0207,-0.0209,-0.0212,-0.0221,0,0,-0.0221,-0.0222,0,0,0,0,0,0,0,0,-0.0034,-0.0037,-0.006,-0.0063,-0.0066,-0.01,-0.0106,-0.0134,-0.0125,-0.0104,-0.0126,-0.0127,-0.0174,-0.018,-0.0188,-0.0225,-0.0229,-0.0221,-0.0223,-0.0224,-0.0225,0,0,0,0,0,0,0,-0.0032,-0.0036,-0.006,-0.0061,-0.0064,-0.0082,-0.0086,-0.0112,-0.0137,-0.0106,-0.0108,-0.0112,-0.0176,-0.0185,-0.0191,-0.023,-0.0221,-0.0224,-0.0226,-0.0227,-0.0283,-0.0283,0,0,0,0,0,0,-0.0023,-0.0034,-0.0058,-0.0061,-0.005,-0.0082,-0.0087,-0.0089,-0.0137,-0.0144,-0.0112,-0.0114,-0.018,-0.0187,-0.0194,-0.0204,-0.0224,-0.0227,-0.0229,-0.0283,-0.0283,-0.0283,0,0,0,0,0,0,-0.0022,-0.0025,-0.0056,-0.0048,-0.0053,-0.0082,-0.0084,-0.009,-0.01,-0.014,-0.0148,-0.0116,-0.0181,-0.019,-0.0213,-0.0208,-0.0228,-0.0231,-0.0284,-0.0283,-0.0283,-0.0227,0,0,0,0,0,0,-0.0021,-0.0024,-0.0022,-0.0047,-0.0053,-0.0063,-0.0084,-0.009,-0.0101,-0.0104,-0.0147,-0.0155,-0.0182,-0.0208,-0.0216,-0.0212,-0.0233,-0.0284,-0.0284,-0.0283,-0.0229,-0.0225,-0.0221,0,0,0,0,0,-0.002,-0.0014,-0.0022,-0.0025,-0.005,-0.0062,-0.0067,-0.009,-0.0101,-0.0102,-0.013,-0.0154,-0.0211,-0.021,-0.0219,-0.0216,-0.0284,-0.0284,-0.0283,-0.0231,-0.0226,-0.0221,0,0,0,0,0,0,-0.0,-0.0018,-0.0027,-0.0028,-0.0041,-0.0068,-0.007,-0.0086,-0.0108,-0.0112,-0.0151,-0.0161,-0.018,-0.0205,-0.0203,-0.0232,-0.0252,-0.0253,-0.0209,-0.0205,-0.0201,-0.0184,-0.0235,0,0,0,0,0,0.0006,0.0007,-0.0015,-0.0014,-0.0019,-0.0044,-0.0052,-0.0066,-0.0089,-0.0099,-0.0128,-0.0159,-0.0184,-0.0199,-0.0226,-0.024,-0.0269,-0.0245,-0.0241,-0.0237,-0.023,-0.0271,-0.027,-0.0281,-0.0281,-0.0281,0,0,0.0014,0.0005,0.0005,-0.0009,-0.0022,-0.0021,-0.005,-0.0057,-0.0057,-0.0104,-0.0114,-0.0146,-0.0185,-0.0201,-0.0212,-0.0222,-0.0248,-0.0237,-0.0233,-0.0228,-0.027,-0.0269,-0.0268,-0.0281,-0.0281,-0.0281,0,0,0.0035,0.0023,0.0031,0.0024,0.001,-0.0004,-0.0003,-0.0027,-0.0039,-0.0052,-0.0086,-0.0113,-0.015,-0.0177,-0.0196,-0.0186,-0.0226,-0.0195,-0.0162,-0.0202,-0.0201,-0.0201,-0.0231,-0.0234,-0.0193,-0.0193,-0.0193,0,0.0046,0.0053,0.0032,0.0039,0.004,0.0008,0.002,0.0004,-0.0024,-0.003,-0.0047,-0.0102,-0.0138,-0.0159,-0.0156,-0.0177,-0.0202,-0.0175,-0.0196,-0.0196,-0.0197,-0.0228,-0.0232,-0.019,-0.019,-0.0191,-0.0191,0,0.0071,0.0078,0.0083,0.0084,0.0082,0.0086,0.0066,0.0058,0.004,0.0022,-0.0002,-0.0051,-0.0083,-0.0101,-0.0126,-0.0146,-0.0162,-0.0186,-0.0206,-0.0193,-0.0226,-0.0231,-0.0186,-0.0187,-0.0188,-0.0188,0,0,0.0093,0.01,0.0102,0.0115,0.0107,0.0109,0.0111,0.0104,0.0108,0.0071,0.0069,0.0018,-0.0011,-0.0033,-0.0074,-0.0109,-0.014,-0.0143,-0.0146,-0.0167,-0.022,-0.0216,-0.0222,-0.0167,-0.0167,-0.0168,-0.024,0,0.0119,0.0147,0.0142,0.0172,0.0186,0.0168,0.0177,0.0166,0.0146,0.0135,0.008,0.0062,0.0015,0.0003,-0.0041,-0.0113,-0.0151,-0.0117,-0.0234,-0.0237,-0.0231,-0.0227,-0.017,-0.0244,-0.0245,-0.0246,-0.0246,0,0.0145,0.0163,0.0196,0.0224,0.0229,0.0242,0.0252,0.0253,0.0227,0.0215,0.0181,0.0139,0.0087,0.0043,-0.0071,-0.0046,-0.0125,-0.0186,-0.0191,-0.0208,-0.0242,-0.0263,-0.0256,-0.0256,-0.0255,-0.0254,-0.0254,0,0.0171,0.0201,0.0232,0.024,0.0262,0.0277,0.0285,0.0276,0.0291,0.0262,0.027,0.0195,0.0166,0.006,-0.0062,-0.0068,-0.019,-0.022,-0.0292,-0.0293,-0.03,-0.0299,-0.0306,-0.0305,-0.0305,-0.0305,-0.0305,0,0.0199,0.0226,0.0249,0.0267,0.0313,0.0312,0.0352,0.0349,0.0354,0.038,0.0313,0.0313,0.0168,0.0083,-0.004,-0.0172,-0.0177,-0.0281,-0.031,-0.0274,-0.027,-0.0303,-0.0302,-0.0308,-0.0307,-0.0307,-0.0306,0,0.022,0.0234,0.0276,0.031,0.0327,0.0356,0.0407,0.0434,0.0434,0.0464,0.0463,0.0399,0.029,0.0143,-0.0031,-0.0132,-0.0269,-0.032,-0.0255,-0.0281,-0.0351,-0.0346,-0.0404,-0.0404,-0.0405,-0.0405,-0.0405,0,0.0231,0.0253,0.0308,0.0342,0.0361,0.0407,0.0446,0.047,0.0504,0.0518,0.0536,0.0453,0.0389,0.0168,-0.0009,-0.0236,-0.0276,-0.0348,-0.0363,-0.0338,-0.0361,-0.0356,-0.0351,-0.0406,-0.0406,-0.0406,-0.0406,0,0.0252,0.027,0.0305,0.0374,0.0424,0.0486,0.0541,0.0577,0.0605,0.0615,0.0613,0.0501,0.0377,0.0186,0.0012,-0.0158,-0.0301,-0.0353,-0.0354,-0.0369,-0.0342,-0.0363,-0.0357,-0.0407,-0.0407,-0.0407,-0.0407,0,0.0265,0.0291,0.0336,0.0399,0.0471,0.0541,0.057,0.0618,0.0655,0.0674,0.0669,0.054,0.0464,0.0226,0.0062,-0.0099,-0.0152,-0.0213,-0.0222,-0.0223,-0.0157,-0.0095,-0.0104,0,0,0,0,0,0.0272,0.0301,0.0358,0.0429,0.0505,0.0549,0.0626,0.0649,0.0683,0.0699,0.0692,0.0582,0.0358,0.0258,0.0099,0.002,-0.0206,-0.0176,-0.0287,-0.0415,-0.0413,-0.0366,0,0,0,0,0,0,0.0276,0.0324,0.0352,0.0444,0.05,0.0585,0.0637,0.0662,0.0674,0.0688,0.0579,0.0535,0.0316,0.0455,0.0096,0.0045,-0.0049,-0.0278,-0.0282,-0.0415,-0.0414,-0.0413,-0.0364,0,0,0,0,0]}]]